TimeCST,TemperatureF,Dew PointF,Humidity,Sea Level PressureIn,VisibilityMPH,Wind Direction,Wind SpeedMPH,Gust SpeedMPH,PrecipitationIn,Events,Conditions,WindDirDegrees,DateUTC
12:55 AM,44.2,35.8,72,30.24,10.0,NNE,16.1,-,N/A,,Clear,30,2013-02-15 06:55:00
1:55 AM,42.6,35.1,75,30.27,10.0,NNE,11.5,-,N/A,,Mostly Cloudy,30,2013-02-15 07:55:00
2:55 AM,40.3,34.0,78,30.28,10.0,NNE,13.8,-,N/A,,Mostly Cloudy,20,2013-02-15 08:55:00
3:55 AM,38.5,31.1,75,30.27,10.0,NNE,15.0,-,N/A,,Clear,30,2013-02-15 09:55:00
4:55 AM,37.0,25.2,62,30.29,10.0,NNE,19.6,24.2,N/A,,Clear,20,2013-02-15 10:55:00
5:55 AM,36.3,21.0,54,30.32,10.0,NNE,16.1,-,N/A,,Overcast,30,2013-02-15 11:55:00
6:55 AM,35.1,22.6,61,30.35,10.0,NNE,13.8,-,N/A,,Overcast,30,2013-02-15 12:55:00
7:55 AM,33.3,21.2,61,30.39,10.0,NNE,16.1,-,N/A,,Scattered Clouds,20,2013-02-15 13:55:00
8:55 AM,34.3,22.3,61,30.41,10.0,NNE,16.1,-,N/A,,Overcast,20,2013-02-15 14:55:00
9:55 AM,35.1,21.4,57,30.43,10.0,NNE,17.3,24.2,N/A,,Overcast,30,2013-02-15 15:55:00
10:55 AM,35.6,21.6,57,30.44,10.0,North,15.0,-,N/A,,Overcast,10,2013-02-15 16:55:00
11:55 AM,38.1,20.8,50,30.43,10.0,NNE,15.0,-,N/A,,Overcast,20,2013-02-15 17:55:00
12:55 PM,40.3,21.0,46,30.40,10.0,NNE,11.5,-,N/A,,Overcast,20,2013-02-15 18:55:00
1:55 PM,42.1,19.8,41,30.38,10.0,NNE,13.8,-,N/A,,Overcast,20,2013-02-15 19:55:00
2:55 PM,41.7,19.6,41,30.38,10.0,North,9.2,-,N/A,,Overcast,10,2013-02-15 20:55:00
3:55 PM,44.1,20.1,39,30.36,10.0,NE,8.1,-,N/A,,Overcast,40,2013-02-15 21:55:00
4:55 PM,43.9,19.2,37,30.37,10.0,NE,12.7,-,N/A,,Overcast,40,2013-02-15 22:55:00
5:55 PM,42.4,19.8,40,30.37,10.0,North,6.9,-,N/A,,Scattered Clouds,350,2013-02-15 23:55:00
6:55 PM,37.6,21.2,52,30.38,10.0,North,5.8,-,N/A,,Clear,10,2013-02-16 00:55:00
7:55 PM,37.2,18.5,47,30.38,10.0,Calm,Calm,-,N/A,,Clear,0,2013-02-16 01:55:00
8:55 PM,34.5,20.1,56,30.37,10.0,Calm,Calm,-,N/A,,Clear,0,2013-02-16 02:55:00
9:55 PM,32.5,22.3,66,30.38,10.0,Calm,Calm,-,N/A,,Partly Cloudy,0,2013-02-16 03:55:00
10:55 PM,32.7,23.2,68,30.42,10.0,NNW,4.6,-,N/A,,Overcast,330,2013-02-16 04:55:00
11:55 PM,33.8,24.6,69,30.39,10.0,Calm,Calm,-,N/A,,Mostly Cloudy,0,2013-02-16 05:55:00